Location: Góry Miechowskie
(50.3599°N, 20.1803°E)
Time: 15:27:33
(UTC+00:00)

Courier 1B Rocket - Pass Details

Date: 17 September 2024
Orbit: 920 x 1201 km, 28.3° (Epoch: 11 October)

Event Time Altitude Azimuth Distance (km) Brightness Sun altitude
Rises 16:01:02 0° 230° (SW) 3,731 9.1 6.6°
Reaches altitude 10° 16:06:53 10° 191° (S) 2,869 7.7 5.7°
Maximum altitude 16:07:48 10° 184° (S) 2,863 7.6 5.6°
Drops below altitude 10° 16:08:44 10° 176° (S) 2,898 7.5 5.4°
Sets 16:14:54 0° 138° (SE) 3,945 7.8 4.4°
